Flag for Malaysia Weather past 2 weeks in Johor Bahru, Malaysia

Now
77 °F

Rain. Overcast.


Feels Like: 78 °F
Forecast: 78 / 83 °F
Wind: 6 mph from North

Location: Singapore / Paya Lebar

Current Time: Dec 19, 2014 at 3:36:46 PM

Latest Report: Dec 19, 2014 at 3:00 PM


Visibility: 3 mi

Pressure: 29.86 "Hg

Humidity: 100%

Dew point: 77 °F

Location of Johor BahruLocation

Historic Weather in Johor Bahru — Graph

°F

Johor Bahru temperature yesterday

Maximum temperature yesterday: 91 °F (at 2:00 PM)
Minimum temperature yesterday: 79 °F (at 5:00 AM)
Average temperature yesterday: 84 °F

Past Weeks' High & Low Weather Summary

 TemperatureHumidityPressure
High95 °F (Dec 7, 2:00 PM)94% (Dec 5, 6:00 AM)29.92 "Hg (Dec 5, 6:00 AM)
Low77 °F (Dec 5, 5:00 AM)50% (Dec 7, 2:00 PM)29.74 "Hg (Dec 7, 2:00 PM)
Average83 °F77%29.83 "Hg
* Reported Dec 4 2:00 PM — Dec 19 2:00 PM, Johor Bahru, Weather by CustomWeather, © 2014

Note: Actual official high and low records may vary slightly from our data, if they occured in-between our weather recording intervals... More about our weather records

Advertising

Johor Bahru weather history for previous 24 hours

 ConditionsComfort  
Time TempWeatherWind HumidityBarometerVisibility
2:00 PM
Dec 19
77 °FRain. Overcast.5 mph94%29.89 "Hg3 mi
1:00 PM77 °FRain. Overcast.5 mph94%29.89 "Hg3 mi
12:00 PM77 °FLight rain. Overcast.8 mph94%29.92 "Hg3 mi
11:00 AM79 °FLight rain. Low clouds.8 mph89%29.92 "Hg3 mi
10:00 AM79 °FLight rain. Partly sunny.5 mph89%29.92 "Hg5 mi
9:00 AM79 °FPartly sunny.6 mph89%29.89 "Hg6 mi
8:00 AM79 °FScattered showers. Broken clouds.9 mph89%29.86 "Hg5 mi
7:00 AM77 °FLots of rain. Partly sunny.10 mph94%29.83 "Hg2 mi
6:00 AM81 °FPassing clouds.7 mph84%29.80 "HgN/A
5:00 AM81 °FPassing clouds.9 mph84%29.80 "HgN/A
11:00 PM
Dec 18
82 °FPassing clouds.14 mph84%29.86 "HgN/A
10:00 PM82 °FPassing clouds.14 mph84%29.83 "HgN/A
9:00 PM84 °FPassing clouds.7 mph79%29.83 "HgN/A
8:00 PM84 °FPassing clouds.9 mph74%29.83 "HgN/A
7:00 PM84 °FScattered showers. Scattered clouds.12 mph79%29.80 "HgN/A
6:00 PM86 °FScattered showers. Partly sunny.9 mph75%29.77 "Hg6 mi
5:00 PM88 °FPartly sunny.14 mph66%29.74 "HgN/A
4:00 PM90 °FPartly sunny.16 mph67%29.74 "HgN/A
3:00 PM90 °FBroken clouds.13 mph63%29.77 "HgN/A
Weather by CustomWeather, © 2014

See weather overviewHow to use our weather pages